Temperature
18 18 18 18 18 17 17 17 17 16 16 16 16 16 16 16 16 16 15 15 15 15 15 15 15 15 14 14 14 14 14 14 14 14 13 13 13 13
18 18 18 18 17 17 17 17 17 17 16 16 16 16 16 16 16 15 15 15 15 15 15 15 15 14 14 14 14 14 14 14 13 13 13 13 13 13
17 17 17 17 17 17 17 17 17 17 17 16 16 16 16 16 16 15 15 15 15 15 14 14 14 14 14 14 14 14 13 13 13 13 13 13 13 12
17 17 17 17 17 17 17 17 17 17 17 16 16 16 16 16 15 15 15 15 15 14 14 14 14 14 14 14 14 13 13 13 13 13 13 12 12 12
17 17 17 17 17 17 17 17 17 16 16 16 16 16 16 15 15 15 15 15 14 14 14 14 14 14 14 14 13 13 13 13 13 13 12 12 12 12
17 17 17 17 17 17 17 17 16 16 16 16 16 16 15 15 15 15 15 15 14 14 14 14 14 14 14 13 13 13 13 13 13 12 12 12 12 12
17 17 17 16 16 16 16 16 16 16 16 16 16 15 15 15 15 15 14 14 14 14 14 14 14 14 13 13 13 13 13 13 12 12 12 12 12 12
17 17 16 16 16 16 16 16 16 16 16 16 15 15 15 15 15 14 14 14 14 14 14 14 14 14 13 13 13 13 13 12 12 12 12 12 12 11
16 16 16 16 16 16 16 16 16 15 15 15 15 15 15 15 14 14 14 14 14 14 13 13 13 13 13 13 13 13 12 12 12 12 12 12 11 11
16 16 16 16 16 16 16 16 16 15 15 15 15 15 15 14 14 14 14 14 14 14 13 13 13 13 13 13 13 12 12 12 12 12 11 11 11 11
16 16 16 16 16 16 16 16 15 15 15 15 15 15 14 14 14 14 14 14 13 13 13 13 13 13 13 12 12 12 12 12 12 11 11 11 11 11
16 15 15 15 15 15 15 15 15 15 15 15 15 15 14 14 14 14 14 13 13 13 13 12 12 12 12 12 12 12 12 11 11 11 11 11 10 10
15 15 15 15 15 15 15 15 15 15 14 14 14 14 14 14 14 13 13 13 13 13 12 12 12 12 11 11 11 11 11 11 11 11 11 10 10 10
15 15 15 15 15 15 15 14 14 14 14 14 14 14 14 14 14 13 13 13 12 12 12 12 12 12 11 11 11 11 11 11 11 11 10 10 10 10
15 15 15 15 14 14 14 14 14 14 14 14 14 13 13 13 13 13 13 13 12 12 12 12 12 11 11 11 11 11 11 10 10 10 10 10 10 10
15 15 15 14 14 14 14 14 14 14 14 13 13 13 13 13 13 13 12 12 12 12 12 12 11 11 11 11 11 11 10 10 10 10 10 9 9 9
15 14 14 14 14 14 14 14 14 14 13 13 13 13 13 13 13 12 12 12 12 12 12 12 11 11 11 11 11 10 10 10 10 10 9 9 9 9
14 14 14 14 14 14 14 14 13 13 13 13 13 13 13 12 12 12 12 12 11 11 11 11 11 11 11 11 10 10 10 10 10 9 9 9 9 9
14 14 14 14 14 13 13 13 13 13 13 13 13 12 12 12 12 12 12 11 11 11 11 11 11 10 10 10 10 10 10 10 9 9 9 9 9 9
14 14 14 14 13 13 13 13 13 13 12 12 12 12 12 12 12 11 11 11 11 11 11 10 10 10 10 10 10 10 9 9 9 9 9 9 9 9
14 14 13 13 13 13 13 13 13 12 12 12 12 12 12 12 11 11 11 11 11 10 10 10 10 10 10 10 9 9 9 9 9 9 9 8 8 8
14 14 13 13 13 13 13 12 12 12 12 12 12 12 11 11 11 11 11 10 10 10 10 10 10 10 9 9 9 9 9 9 9 9 8 8 8 8
14 14 13 13 13 13 12 12 12 12 12 12 12 11 11 11 11 11 10 10 10 10 10 9 9 9 9 9 9 9 9 9 8 8 8 8 8 8
Wind_Speed
2 2 1 1 1 1 2 4 4 2 1 2 1 2 3 5 6 6 6 7 8 8 7 6 5 5 5 4 4 4 3 3 4 4 4 4 4 4
1 2 1 0 1 1 1 2 3 4 2 2 2 2 2 3 5 6 6 6 7 8 7 7 6 6 5 5 5 4 4 4 4 4 3 3 4 3
2 2 1 1 1 1 1 1 2 3 3 1 1 1 1 1 2 3 4 4 5 7 7 7 7 7 6 6 6 5 5 5 5 4 4 4 3 3
1 2 1 1 1 1 1 1 2 3 4 2 1 0 1 2 2 2 2 3 4 6 7 8 7 7 7 7 7 6 6 6 6 5 5 5 4 4
2 2 2 2 1 1 1 1 1 2 2 3 1 0 0 0 0 1 1 1 3 4 7 8 9 9 8 8 8 7 7 7 7 7 7 6 5 5
2 2 2 2 3 2 2 2 2 2 2 2 1 0 0 1 1 1 1 1 2 2 3 5 7 8 9 9 9 8 8 8 8 8 7 7 6 6
1 1 1 2 2 3 2 3 3 2 2 2 1 1 0 0 1 1 1 2 2 1 1 2 3 4 6 8 9 9 9 9 9 9 9 8 7 7
1 0 0 1 1 2 3 4 4 4 3 3 2 2 3 3 2 2 1 0 2 2 1 2 2 3 5 7 8 9 10 10 10 10 10 9 9 8
2 1 0 0 0 0 1 1 1 3 5 5 4 4 4 4 3 2 2 2 3 3 1 2 2 3 5 7 9 9 10 11 11 11 10 10 10 9
2 2 2 1 1 1 1 1 1 1 3 3 4 5 5 5 5 4 4 2 2 2 2 2 2 3 4 6 7 8 9 10 11 11 11 10 10 9
2 2 2 2 2 3 2 1 1 3 3 3 5 5 5 5 5 2 1 1 2 3 1 2 2 2 3 4 6 7 8 9 10 10 10 10 9 8
2 2 3 3 3 4 3 2 2 4 2 2 2 2 2 3 4 5 4 3 2 3 3 2 2 1 2 3 3 5 5 7 8 9 9 9 8 5
3 3 3 3 3 4 4 4 6 4 2 1 1 2 2 2 2 3 4 4 4 4 4 3 2 2 2 2 2 3 3 3 4 5 7 8 7 6
4 4 3 4 4 3 3 3 4 2 1 0 1 2 2 3 3 3 4 5 6 6 5 4 3 3 2 2 3 2 2 3 3 3 4 5 6 7
4 4 3 3 3 2 3 3 1 1 1 1 2 3 3 3 3 2 2 3 4 5 6 5 4 3 3 3 3 2 2 2 3 3 3 3 3 3
3 2 2 2 2 2 2 1 2 2 2 3 3 3 2 2 2 2 2 2 2 3 4 4 5 4 4 4 3 3 2 2 2 3 2 2 3 4
2 1 0 0 1 1 1 2 2 1 2 3 2 2 2 2 3 2 1 1 1 3 3 3 3 3 3 3 3 3 3 2 3 3 2 2 3 5
4 2 2 3 3 3 3 3 3 3 4 3 3 3 3 3 3 2 1 2 2 3 3 3 1 1 2 2 4 4 3 3 3 2 2 3 4 5
4 4 4 4 4 4 4 4 4 4 3 3 3 3 3 2 2 3 2 2 2 3 3 2 1 1 2 3 4 3 3 3 2 2 3 3 4 5
4 5 5 5 5 5 5 4 4 3 2 3 3 3 3 2 2 3 3 3 3 3 3 2 2 3 4 4 3 3 4 4 3 3 3 3 3 4
6 5 5 5 5 5 5 4 4 3 3 3 3 3 3 3 2 2 3 4 3 2 3 4 5 5 2 1 1 3 3 5 5 4 3 2 2 2
6 6 5 5 5 4 4 4 3 3 3 3 3 3 3 3 3 3 3 3 3 3 4 4 3 1 1 2 4 4 4 4 5 5 6 6 3 3
6 6 5 4 4 4 4 4 4 3 3 3 3 3 3 3 3 3 3 4 3 3 3 2 2 1 2 3 4 4 4 3 2 2 3 6 8 9
Wind_Direction
150 145 141 178 157 162 155 155 155 173 248 257 258 257 204 194 197 190 195 202 202 205 207 210 214 219 224 224 227 228 235 242 250 258 265 276 276 276
122 122 129 152 119 137 165 172 162 161 194 232 230 245 202 200 203 193 200 208 209 208 212 217 224 227 226 223 224 228 235 243 249 256 263 273 268 258
100 112 124 147 120 137 149 150 146 139 157 245 253 261 166 196 176 197 206 207 214 216 221 224 227 227 224 225 228 228 234 242 246 249 253 257 259 259
132 122 117 110 96 122 129 135 147 150 151 174 234 296 205 206 195 201 212 216 216 226 225 227 226 229 230 231 233 234 235 241 246 249 252 253 257 261
144 138 147 125 116 123 126 125 143 132 132 147 180 221 278 239 96 271 239 250 232 234 231 231 232 232 233 237 238 240 238 240 244 248 250 250 251 255
126 133 138 148 163 163 146 148 137 120 120 126 137 191 268 300 103 254 298 289 268 255 238 233 234 236 240 241 242 243 241 242 242 244 246 247 248 250
109 132 141 145 172 174 164 166 148 145 140 142 155 120 221 185 236 233 250 278 286 249 248 260 243 244 250 249 246 245 243 243 243 243 244 246 247 249
168 202 137 63 162 185 182 177 168 169 181 177 185 196 224 223 225 210 207 233 290 269 198 273 233 252 251 249 248 245 244 244 245 244 244 247 247 247
189 197 249 5 41 180 182 150 184 200 188 179 192 215 213 215 196 203 208 209 231 239 177 266 263 258 260 258 255 249 246 246 246 245 243 243 245 245
186 186 194 256 283 175 144 90 329 281 219 200 207 221 219 211 198 200 209 225 271 256 169 227 266 260 266 269 259 248 245 246 249 248 245 244 244 245
232 215 199 215 238 171 131 138 297 299 275 237 227 227 229 220 196 164 161 135 287 274 219 192 246 262 269 266 270 255 248 253 255 252 247 247 246 244
264 256 232 225 227 192 176 189 245 271 289 317 304 295 273 254 214 192 192 198 225 260 242 192 227 211 285 269 259 264 262 261 257 253 251 249 243 236
234 248 253 238 229 215 201 209 234 244 249 256 284 307 312 298 266 228 206 197 208 239 233 186 211 206 217 266 282 259 253 257 254 252 247 241 236 221
217 234 239 229 226 226 222 239 244 237 232 264 290 285 281 276 272 259 239 225 223 231 232 194 203 208 209 245 270 278 268 262 242 235 247 250 240 232
225 223 227 229 227 237 245 245 228 187 189 241 257 265 263 263 273 281 289 267 265 257 247 225 211 217 203 218 240 248 261 267 236 220 225 226 228 229
237 244 244 246 226 235 256 251 220 204 204 232 254 267 282 295 292 281 275 282 291 292 279 249 223 203 221 233 221 239 231 237 240 227 218 232 245 234
171 126 79 245 250 265 262 252 241 225 231 243 245 269 285 291 290 288 263 247 253 276 292 294 278 244 225 216 232 245 245 249 233 214 207 237 250 244
149 187 216 221 223 231 237 248 242 235 235 232 238 250 258 265 280 287 267 239 250 259 266 277 291 340 348 299 230 236 246 245 245 222 204 221 259 261
172 210 219 223 228 230 229 231 237 238 227 225 234 243 245 252 263 271 269 263 258 259 264 260 236 204 250 276 282 236 218 242 241 236 230 222 245 259
209 215 220 222 223 226 228 228 234 237 225 231 240 245 241 235 251 267 269 261 257 261 274 275 248 227 224 236 243 266 243 220 222 239 251 249 263 274
218 222 223 221 223 223 223 219 214 211 216 221 230 237 236 226 238 252 260 269 262 259 263 264 260 256 227 157 254 275 272 251 230 227 232 239 278 291
217 219 223 221 217 213 209 206 209 209 206 219 230 233 233 226 232 243 250 256 256 251 256 267 279 285 183 214 245 255 265 282 284 266 238 222 200 220
217 215 215 214 211 204 202 201 201 213 214 219 224 231 231 236 239 234 241 252 259 262 268 274 293 277 250 239 245 252 261 271 285 304 292 274 256 256
Height
1537 1537 1537 1537 1537 1538 1538 1538 1538 1538 1538 1538 1538 1538 1537 1537 1537 1537 1537 1538 1537 1537 1537 1537 1536 1536 1535 1535 1534 1534 1533 1533 1532 1531 1531 1530 1530 1529
1536 1536 1536 1537 1536 1536 1537 1537 1537 1537 1536 1536 1537 1537 1537 1536 1536 1536 1536 1536 1536 1536 1535 1535 1535 1534 1534 1533 1533 1532 1531 1531 1530 1529 1529 1528 1527 1527
1536 1536 1535 1535 1535 1535 1535 1535 1536 1536 1535 1535 1536 1536 1535 1535 1535 1535 1535 1534 1534 1534 1534 1534 1533 1533 1532 1531 1531 1530 1529 1529 1528 1527 1526 1526 1525 1524
1534 1534 1534 1534 1534 1535 1534 1534 1534 1534 1534 1534 1534 1534 1534 1534 1533 1533 1533 1533 1532 1532 1532 1532 1531 1531 1530 1529 1529 1528 1527 1526 1525 1525 1524 1523 1523 1522
1534 1533 1533 1533 1533 1533 1533 1533 1533 1533 1533 1532 1532 1533 1532 1532 1532 1531 1531 1530 1530 1530 1529 1529 1529 1528 1528 1527 1526 1526 1525 1524 1523 1522 1521 1521 1520 1519
1533 1533 1533 1532 1532 1532 1532 1532 1532 1531 1531 1531 1531 1531 1531 1531 1530 1529 1529 1528 1528 1528 1527 1526 1526 1525 1525 1524 1524 1523 1522 1521 1520 1520 1519 1518 1517 1517
1532 1532 1531 1531 1531 1531 1531 1531 1531 1530 1530 1530 1529 1529 1529 1529 1529 1528 1527 1526 1526 1525 1525 1524 1523 1523 1522 1521 1521 1520 1519 1518 1517 1517 1516 1515 1514 1513
1531 1530 1530 1530 1530 1530 1530 1530 1530 1529 1529 1529 1528 1528 1527 1527 1527 1526 1525 1524 1523 1523 1522 1521 1521 1520 1519 1518 1518 1517 1516 1515 1514 1514 1513 1512 1511 1510
1530 1529 1529 1529 1529 1529 1528 1528 1528 1528 1528 1528 1527 1526 1526 1525 1525 1524 1523 1522 1521 1521 1520 1518 1518 1516 1516 1515 1515 1514 1513 1512 1511 1511 1510 1509 1508 1507
1528 1528 1528 1528 1528 1527 1527 1526 1526 1526 1526 1526 1525 1524 1524 1523 1523 1522 1521 1520 1519 1518 1517 1515 1514 1513 1513 1512 1511 1510 1510 1509 1508 1507 1506 1505 1504 1503
1527 1527 1526 1526 1526 1526 1525 1524 1524 1524 1524 1523 1523 1522 1522 1521 1520 1519 1518 1517 1516 1515 1514 1513 1511 1510 1509 1508 1508 1507 1506 1505 1504 1503 1503 1502 1501 1500
1525 1524 1524 1524 1524 1523 1523 1523 1522 1522 1522 1521 1520 1520 1519 1518 1517 1517 1516 1514 1513 1512 1511 1510 1508 1507 1506 1505 1504 1503 1502 1501 1500 1499 1499 1498 1497 1496
1521 1521 1522 1522 1521 1521 1521 1520 1520 1520 1519 1518 1517 1517 1516 1515 1514 1513 1512 1512 1510 1509 1508 1507 1505 1505 1504 1502 1500 1499 1498 1497 1496 1495 1495 1494 1494 1493
1518 1518 1518 1519 1519 1518 1518 1518 1517 1517 1516 1515 1514 1513 1512 1511 1511 1510 1509 1508 1507 1506 1505 1504 1502 1501 1500 1498 1497 1496 1494 1494 1492 1491 1491 1490 1490 1489
1515 1515 1515 1516 1516 1516 1515 1515 1515 1514 1513 1512 1511 1510 1510 1509 1508 1507 1506 1505 1504 1503 1502 1501 1500 1499 1497 1495 1494 1492 1491 1490 1489 1488 1487 1487 1486 1485
1511 1512 1512 1513 1513 1512 1512 1512 1511 1511 1510 1509 1508 1507 1506 1505 1504 1503 1502 1501 1500 1499 1499 1497 1496 1495 1494 1492 1491 1489 1488 1487 1486 1485 1484 1483 1483 1482
1508 1508 1508 1509 1509 1508 1508 1508 1507 1507 1506 1505 1505 1504 1503 1502 1501 1500 1499 1497 1496 1495 1494 1494 1493 1492 1491 1489 1487 1486 1485 1484 1483 1482 1481 1479 1479 1478
1504 1504 1504 1504 1504 1504 1504 1504 1503 1503 1502 1502 1501 1500 1499 1498 1497 1496 1495 1494 1493 1492 1491 1490 1489 1488 1487 1485 1485 1483 1482 1480 1480 1479 1477 1476 1475 1474
1501 1500 1501 1501 1501 1501 1500 1500 1499 1499 1499 1498 1497 1496 1495 1494 1494 1493 1492 1491 1490 1489 1488 1487 1485 1484 1483 1481 1481 1480 1479 1477 1476 1475 1474 1472 1471 1470
1496 1496 1497 1497 1497 1497 1496 1496 1495 1495 1494 1494 1493 1492 1492 1490 1489 1489 1488 1487 1486 1485 1484 1483 1482 1481 1480 1479 1477 1476 1476 1474 1472 1471 1470 1469 1467 1467
1492 1492 1492 1493 1493 1493 1492 1492 1491 1490 1490 1490 1489 1488 1487 1487 1486 1485 1484 1484 1483 1481 1480 1479 1478 1478 1476 1475 1474 1472 1472 1471 1469 1468 1466 1464 1463 1462
1487 1488 1488 1488 1488 1488 1488 1487 1487 1486 1485 1486 1485 1484 1483 1483 1482 1481 1480 1480 1479 1477 1476 1475 1474 1473 1472 1471 1469 1468 1467 1467 1465 1464 1463 1461 1460 1458
1483 1484 1484 1484 1484 1483 1483 1482 1482 1482 1481 1481 1481 1480 1479 1479 1478 1477 1476 1476 1474 1473 1472 1470 1470 1469 1468 1467 1466 1465 1464 1462 1461 1460 1459 1458 1457 1456